Location: Kielce
(50.8833°N, 20.6167°E)
Time: 07:58:46
(UTC+01:00)

Envisat - Visible Passes

Search period start: 26 February 2021 00:00
Search period end: 08 March 2021 00:00
Orbit: 764 x 766 km, 98.1° (Epoch: 25 February)

Date Brightness Start Highest point End Pass type
(mag) Time Alt. Az. Time Alt. Az. Time Alt. Az.
26 Feb 5.9 04:06:31 10° NE 04:09:53 17° E 04:13:12 10° SE visible
26 Feb 3.0 05:44:24 10° NNE 05:49:30 78° WNW 05:54:35 10° SSW visible
27 Feb 3.8 05:07:38 10° NNE 05:12:38 54° E 05:17:36 10° S visible
27 Feb 6.6 18:10:31 10° WSW 18:12:08 11° W 18:13:45 10° WNW visible
28 Feb 5.2 04:31:13 10° NE 04:35:34 28° E 04:39:53 10° SSE visible
01 Mar 6.1 03:55:38 10° NE 03:58:18 14° E 04:00:56 10° ESE visible
01 Mar 3.1 05:32:58 10° NNE 05:38:05 87° ESE 05:43:10 10° SSW visible
02 Mar 4.3 04:56:17 10° NNE 05:01:09 44° E 05:06:00 10° S visible
02 Mar 6.3 17:57:51 10° WSW 18:00:32 14° W 18:03:14 10° NW visible
03 Mar 5.5 04:20:02 10° NE 04:24:02 23° E 04:28:00 10° SE visible
04 Mar 6.3 03:45:10 10° ENE 03:46:41 11° E 03:48:12 10° E visible
04 Mar 3.4 05:21:32 10° NNE 05:26:39 72° ESE 05:31:43 10° S visible
05 Mar 4.7 04:44:57 10° NNE 04:49:40 36° E 04:54:19 10° SSE visible
06 Mar 5.8 04:08:56 10° NE 04:12:28 19° E 04:15:59 10° SE visible
07 Mar 3.7 05:10:09 10° NNE 05:15:11 58° E 05:20:12 10° S visible
07 Mar 6.8 18:13:47 10° W 18:14:45 10° W 18:15:41 10° WNW visible
